www.pogodaiklimat.ru

Погода и климат >> Архив погоды >> Оман >> Ibra


ПОГОДА в Ibra

  • Прогноз погоды в Ibra
  • Монитор погоды в Ibra
  • Климат города

АРХИВ ПОГОДЫ в Ibra

Время (UTC), дата Ветер
(напр.,м/с)
 
Видим.   Явления Облачность Т
(С)
Тd
(С)
f
(%)
Тe
(С)
Тes
(С)
Комфортность P
(гПа)
Po
(гПа)
Тmin
(С)
Tmax
(С)
R
(мм)
R24
(мм)
S
(см)
03 15.10 СЗ 2 10 км ясно +23.7 +6.1 32 +24 +24 комфорт 1010.2 952.6
06 15.10 штиль 0 10 км ясно +34.0 +5.6 17 +32 +46 жарко 1009.0 953.3 +22.4
09 15.10 СЗ 2 10 км ясно +37.5 +0.8 10 +34 +48 очень
жарко
1005.4 950.5
12 15.10 Ю 4 10 км ясно +37.7 +0.9 10 +34 +37 очень
жарко
1003.8 949.0
15 15.10 ЮЗ 3 10 км ясно +35.5 +1.8 12 +32 +32 жарко 1005.3 950.0
18 15.10 Ю 2 н/о н/о +30.0 +11.3 32 +31 +31 жарко 1007.4 952.6 +38.8
21 15.10 штиль 0 н/о н/о +26.8 +11.4 38 +28 +28 жарко 1007.2 951.9
00 16.10 З 1 н/о н/о +23.3 +9.8 42 +25 +25 комфорт 1007.6 951.6
03 16.10 СЗ 3 9000 м мгла ясно +24.2 +7.8 35 +25 +25 комфорт 1010.4 952.9
06 16.10 В 2 9000 м мгла ясно +34.8 +2.4 13 +32 +42 жарко 1009.3 953.7 +22.3
09 16.10 ЮЗ 3 9000 м мгла ясно +37.3 +1.9 11 +34 +47 очень
жарко
1005.6 950.6
12 16.10 ЮВ 3 10 км ясно +37.9 -0.4 9 +34 +37 очень
жарко
1003.6 948.8
15 16.10 Ю 4 9000 м мгла ясно +35.0 +2.5 13 +32 +32 жарко 1005.2 949.9
18 16.10 В 1 10 км ясно +30.3 +8.1 25 +29 +29 жарко 1008.4 952.1 +38.6
21 16.10 В 3 н/о н/о +27.8 +7.8 28 +27 +27 жарко 1006.6 951.5
00 17.10 СЗ 1 н/о н/о +23.7 +7.1 34 +24 +24 комфорт 1007.1 951.2
03 17.10 СЗ 3 н/о н/о +24.3 +6.2 31 +24 +24 комфорт 1008.6 952.7
06 17.10 В 1 н/о н/о +33.6 +1.3 13 +30 +30 жарко 1007.7 953.4 +22.5
09 17.10 Ю 3 9000 м мгла ясно +36.9 +2.9 12 +34 +45 очень
жарко
1005.2 950.2
12 17.10 Ю 3 9000 м мгла ясно +37.7 +0.9 10 +34 +37 очень
жарко
1003.5 948.7
15 17.10 Ю 7 9000 м мгла ясно +35.3 +3.8 14 +32 +32 жарко 1005.1 949.8
18 17.10 Ю 3 н/о н/о +29.7 +11.0 31 +30 +30 жарко 1007.0 952.2 +38.4
21 17.10 С 1 н/о н/о +26.6 +9.8 35 +27 +27 жарко 1007.1 951.7
00 18.10 С 1 н/о н/о +23.7 +7.8 36 +24 +24 комфорт 1007.8 951.8
03 18.10 СЗ 1 н/о н/о +22.9 +7.0 36 +24 +24 комфорт 1009.9 953.7
06 18.10 В 2 9000 м мгла ясно +31.9 +4.7 18 +30 +40 жарко 1010.9 954.7 +21.8
09 18.10 ЮЗ 4 10 км ясно +36.2 +2.3 12 +33 +43 жарко 1007.0 951.8
12 18.10 З 2 10 км 1/1 750 м
[Cu hum]
+37.5 +0.8 10 +34 +37 очень
жарко
1004.9 950.0
15 18.10 С 5 н/о н/о +33.6 +5.0 17 +34 +34 очень
жарко
1005.4 951.3
18 18.10 ЮВ 3 9000 м мгла ясно +30.2 +9.7 28 +30 +30 жарко 1009.8 953.5 +37.6
21 18.10 СВ 2 н/о н/о +27.7 +9.6 32 +28 +28 жарко 1008.6 953.3
00 19.10 СЗ 2 н/о н/о +24.2 +8.8 37 +25 +25 комфорт 1008.9 953.0
03 19.10 СЗ 3 н/о н/о +23.5 +8.2 38 +24 +24 комфорт 1010.7 954.5
06 19.10 СЗ 1 9000 м мгла ясно +32.5 +1.6 14 +29 +42 жарко 1011.4 955.3 +22.4
09 19.10 Ю 3 10 км ясно +35.5 +4.0 14 +33 +45 жарко 1007.7 952.3
12 19.10 ЮВ 4 н/о н/о +36.6 +3.0 12 +33 +33 жарко 1004.5 950.9
15 19.10 СВ 3 н/о н/о +33.0 +7.9 21 +31 +31 жарко 1006.8 952.5
18 19.10 В 1 9000 м мгла ясно +29.6 +9.7 29 +29 +29 жарко 1010.8 954.3 +37.5
21 19.10 СЗ 3 н/о н/о +26.7 +9.0 33 +27 +27 жарко 1008.9 953.4
00 20.10 СЗ 3 н/о н/о +25.3 +11.8 43 +27 +27 жарко 1008.4 952.8
03 20.10 ЮЗ 1 н/о н/о +23.2 +9.4 41 +25 +25 комфорт 1010.1 953.9
06 20.10 З 2 н/о н/о +33.5 +8.0 21 +32 +32 жарко 1009.0 954.7 +22.6
09 20.10 З 3 н/о н/о +35.9 -0.7 10 +32 +32 жарко 1005.9 952.1
12 20.10 Ю 4 н/о н/о +36.9 -0.7 9 +33 +33 жарко 1004.1 950.6
15 20.10 ЮВ 4 н/о н/о +33.6 -0.4 11 +30 +30 жарко 1005.9 951.7
18 20.10 В 2 н/о н/о +28.5 +2.2 18 +26 +26 жарко 1008.9 953.7 +37.8
21 20.10 СВ 1 н/о н/о +25.5 +7.8 32 +26 +26 жарко 1008.7 953.0
00 21.10 СЗ 1 н/о н/о +22.1 +7.6 39 +23 +23 комфорт 1009.1 952.8
03 21.10 СЗ 3 н/о н/о +23.4 +11.8 48 +26 +26 жарко 1009.6 953.6
06 21.10 В 1 10 км ясно +32.3 +7.9 22 +31 +44 жарко 1010.0 954.0 +21.5
09 21.10 СВ 2 10 км ясно +36.0 +3.3 13 +33 +48 жарко 1006.0 950.8
12 21.10 Ю 4 10 км ясно +36.0 +3.3 13 +33 +35 жарко 1004.2 949.1
15 21.10 ЮЗ 4 10 км ясно +33.2 +4.0 16 +31 +31 жарко 1005.7 950.0
18 21.10 ЮВ 4 10 км ясно +27.4 +14.8 46 +30 +30 жарко 1009.0 952.3 +36.6
21 21.10 ЮВ 2 н/о н/о +25.1 +14.3 51 +28 +28 жарко 1007.7 952.1
00 22.10 ЮВ 1 н/о н/о +22.7 +13.9 58 +26 +26 жарко 1008.4 952.3

 

Местоположение метеостанции Ibra (Оман): широта 22.73 долгота 58.50 высота над уровнем моря 469 м.

В архиве по умолчанию представлена погода в Ibra за последнюю неделю. Архивные данные за месяц целиком и за предыдущие месяцы, начиная с января 2011 года, Вы можете получить, выбрав интересующий диапазон дат из раскрывающегося списка и нажав кнопку "Ввод!".

Внимание! Время в таблицах - всемирное. Для получения местного времени необходимо прибавить поправку, которая в Ibra равна 4 ч.

Смотрите также архив погоды в соседних городах и на ближайших метеорологических станциях:

Погода в Al Mudhaibi (Оман) (45 км)
Погода в Bidiya (Оман) (47 км)
Погода в Al Amerat (Оман) (86 км)
Погода в Samail (Оман) (86 км)
Погода в Qalhat (Оман) (93 км)
Погода в Saiq (Оман) (97 км)
Погода в Seeb (Оман) (97 км)
Погода в Mina Sultan Qaboos (Оман) (99 км)
Погода в Nizwa (Оман) (100 км)
Погода в Sur (Оман) (102 км)

Пояснения к столбцам:

Ветер - указаны скорость ветра в м/с - средняя за 10 мин, порывы в срок и между сроками (в фигурных скобках) и направление, откуда дует ветер: С - северный, СВ - северо-восточный, В - восточный, ЮВ - юго-восточный, Ю - южный, ЮЗ - юго-западный, З - западный, СЗ - северо-западный.
Видимость - горизонтальная дальность видимости в метрах или километрах. При видимости от 1 до 10 км при отсутствии осадков обычно наблюдается дымка, при ухудшении видимости до 1 км и менее - туман. В сухую погоду видимость может ухудшаться дымом, пылью или мглою.
Явления - указаны атмосферные явления, наблюдавшиеся в срок или в последний час перед сроком; фигурными скобками обозначены явления, наблюдавшиеся между сроками (за 1-3 часа до срока); квадратными скобками обозначены град или гололедные отложения с указанием их диаметра в мм.
Облачность - указаны через наклонную черту общая и нижняя облачность в баллах и высота нижней границы облаков в метрах; квадратными скобками обозначены формы облаков: Ci - перистые, Cs - перисто-слоистые, Cc - перисто-кучевые, Ac - высококучевые, As - высокослоистые, Sc - слоисто-кучевые, Ns - слоисто-дождевые, Cu - кучевые, Cb - кучево-дождевые. Подробнее классификацию облаков см. в Атласе облаков (PDF).
T - Температура воздуха - температура, измеренная на высоте 2 м над землей.
Td - Температура точки росы - температура, при понижении до которой содержащийся в воздухе водяной пар достигнет насыщения.
f - Относительная влажность воздуха - влажноcть воздуха, измеренная на высоте 2 м над землей.
Te - Эффективная температура - температура, которую ощущает одетый по сезону человек в тени. Характеристика душности погоды. При расчете учитывается влияние влажности воздуха и скорости ветра на теплоощущения человека.
Tes - Эффективная температура на солнце - температура, которую ощущает человек, с поправкой на солнечный нагрев. Характеристика знойности погоды. Зависит от высоты солнца над горизонтом, облачности и скорости ветра. Ночью, в пасмурную погоду, а также при ветре 12 м/с и более поправка равна нулю.
P - Атмосферное давление - приведенное к уровню моря атмосферное давление.
Po - Атмосферное давление - измеренное на уровне метеостанции атмосферное давление.
Tmin - Минимальная температура - минимум температуры воздуха на высоте 2 м над землей.
Tmax - Максимальная температура - максимум температуры воздуха на высоте 2 м над землей.
R - Количество осадков - Количество выпавших осадков за период времени, мм. При наведении курсора мыши на число - период времени, за который выпало указанное количество осадков.
R24 - Количество осадков - Количество выпавших осадков за 24 часа, мм.
S - Снежный покров - Высота снежного покрова, см. При наведении курсора мыши на число - состояние снежного покрова и степень покрытия местности в баллах.